Lawrence, MA

4:14 PM EDT on June 26, 2017 (GMT -0400)
Lawrence Municipal

Weather History for KLWM - February, 2014

Change the Weather History Date:

Monday, February 3, 2014

  Actual Average Record
Temperature  
Mean Temperature 29 °F -  
Max Temperature 37 °F 38 °F 59 °F (1970)
Min Temperature 21 °F 17 °F -14 °F (1931)
Degree Days  
Heating Degree Days 36    
Moisture  
Dew Point 22 °F    
Average Humidity 73    
Maximum Humidity 85    
Minimum Humidity 54    
Precipitation  
Precipitation 0.01 in - - ()
Sea Level Pressure  
Sea Level Pressure 30.20 in    
Wind  
Wind Speed 6 mph (North)    
Max Wind Speed 13 mph    
Max Gust Speed -    
Visibility 6 miles    
Events Snow    
Averages and records for this station are not official NWS values.
T = Trace of Precipitation, MM = Missing Value Source: NWS Daily Summary

Daily Weather History Graph

Daily Weather History Graph

Search for Another Location

Airport or City:

Trip Planner

Search our weather history database for the weather conditions in past years. The results will help you decide how hot, cold, wet, or windy it might be!

Date:

Astronomy

Feb. 03, 2014 Rise Set
Actual Time 6:56 AM EST 5:00 PM EST
Civil Twilight 6:26 AM EST 5:30 PM EST
Nautical Twilight 5:53 AM EST 6:03 PM EST
Astronomical Twilight 5:20 AM EST 6:37 PM EST
Moon 8:50 AM EST (2/3) 9:55 PM EST (2/3)
Length of Visible Light 11h 03m
Length of Day
10h 03m
Waxing Crescent, 19% of the Moon is Illuminated
Feb 3
Waxing Crescent
Feb 6
First Quarter
Feb 14
Full
Feb 22
Last Quarter
Mar 1
New

Hourly Weather History & Observations

Time (EST) Temp. Windchill Dew Point Humidity Pressure Visibility Wind Dir Wind Speed Gust Speed Precip Events Conditions
12:54 AM 37.0 °F 33.3 °F 30.0 °F 76% 30.09 in 10.0 mi West 4.6 mph - N/A   Clear
1:54 AM 37.0 °F 33.3 °F 30.0 °F 76% 30.10 in 10.0 mi WNW 4.6 mph - N/A   Mostly Cloudy
2:54 AM 37.0 °F 34.5 °F 30.0 °F 76% 30.12 in 10.0 mi NW 3.5 mph - N/A   Overcast
3:54 AM 36.0 °F 27.5 °F 26.1 °F 67% 30.12 in 10.0 mi North 12.7 mph - N/A   Overcast
4:54 AM 35.1 °F 29.3 °F 25.0 °F 67% 30.14 in 10.0 mi North 6.9 mph - N/A   Overcast
5:54 AM 34.0 °F 29.8 °F 19.9 °F 56% 30.18 in 10.0 mi North 4.6 mph - N/A   Overcast
6:54 AM 33.1 °F 28.7 °F 19.0 °F 56% 30.20 in 10.0 mi NNW 4.6 mph - N/A   Overcast
7:54 AM 33.1 °F 30.0 °F 19.0 °F 56% 30.20 in 10.0 mi North 3.5 mph - N/A   Overcast
8:54 AM 34.0 °F 28.8 °F 19.0 °F 54% 30.21 in 10.0 mi NNE 5.8 mph - N/A   Overcast
9:54 AM 34.0 °F 29.8 °F 19.0 °F 54% 30.22 in 10.0 mi ENE 4.6 mph - N/A   Overcast
10:54 AM 34.0 °F 28.8 °F 19.9 °F 56% 30.24 in 10.0 mi NE 5.8 mph - N/A   Overcast
11:54 AM 32.0 °F 25.6 °F 21.0 °F 64% 30.22 in 5.0 mi NE 6.9 mph - 0.00 in Snow Light Snow
12:45 PM 30.9 °F 24.3 °F 23.0 °F 72% 30.20 in 2.5 mi NNE 6.9 mph - 0.00 in Snow Light Snow
12:54 PM 30.9 °F 23.5 °F 23.0 °F 72% 30.21 in 1.5 mi NE 8.1 mph - 0.00 in Snow Light Snow
1:54 PM 28.9 °F 21.1 °F 24.1 °F 82% 30.20 in 1.2 mi NE 8.1 mph - 0.00 in Snow Light Snow
2:54 PM 28.9 °F 21.1 °F 24.1 °F 82% 30.20 in 1.2 mi North 8.1 mph - 0.00 in Snow Light Snow
3:07 PM 28.9 °F 20.4 °F 23.0 °F 78% 30.19 in 2.5 mi NNE 9.2 mph - 0.00 in Snow Light Snow
3:14 PM 28.9 °F 20.4 °F 23.0 °F 78% 30.19 in 2.0 mi NNE 9.2 mph - 0.00 in Snow Light Snow
3:18 PM 28.9 °F 21.9 °F 23.0 °F 78% 30.19 in 1.8 mi NNE 6.9 mph - 0.00 in Snow Light Snow
3:54 PM 28.9 °F 21.1 °F 23.0 °F 78% 30.22 in 1.2 mi NNE 8.1 mph - 0.00 in Snow Light Snow
4:16 PM 28.0 °F 20.0 °F 23.0 °F 81% 30.21 in 0.8 mi NNE 8.1 mph - 0.01 in Snow Light Snow
4:42 PM 28.0 °F 20.0 °F 23.0 °F 81% 30.21 in 1.0 mi NE 8.1 mph - 0.01 in Snow Light Snow
4:54 PM 28.0 °F 20.0 °F 23.0 °F 81% 30.22 in 2.0 mi NE 8.1 mph - 0.01 in Snow Light Snow
5:01 PM 28.0 °F 20.0 °F 23.0 °F 81% 30.21 in 1.8 mi NE 8.1 mph - 0.00 in Snow Light Snow
5:09 PM 28.0 °F 20.0 °F 23.0 °F 81% 30.21 in 3.0 mi NE 8.1 mph - 0.00 in Snow Light Snow
5:54 PM 28.9 °F - 23.0 °F 78% 30.22 in 10.0 mi Calm Calm - 0.00 in   Overcast
6:54 PM 28.9 °F 25.2 °F 21.9 °F 75% 30.22 in 10.0 mi NW 3.5 mph - N/A   Clear
7:54 PM 28.0 °F - 21.9 °F 78% 30.24 in 10.0 mi Calm Calm - N/A   Clear
8:54 PM 24.1 °F 19.7 °F 19.0 °F 81% 30.27 in 9.0 mi West 3.5 mph - N/A   Clear
9:54 PM 24.1 °F 19.7 °F 19.0 °F 81% 30.29 in 9.0 mi WNW 3.5 mph - N/A   Clear
10:54 PM 21.9 °F - 18.0 °F 85% 30.29 in 7.0 mi Calm Calm - N/A   Clear
11:54 PM 21.0 °F - 17.1 °F 85% 30.31 in 6.0 mi Calm Calm - N/A   Clear